This demonstration page uses our WeatherBlox Daily Observations layout. Learn more.

Left ArrowRight Arrow

Hourly Observations for January 16, 2016

Temp ( °F °C ) Dew Point ( °F °C ) Humidity (%) Winds ( mph kmh ) Pressure ( in mb ) Visibility ( mi km ) Precip ( " mm )
12:00 am 00:00 Partly Cloudy 48 9 46 8 94 94 SSW 3 6 29.71 1006 10 16 0.00 0.00
12:53 am 00:53 Partly Cloudy 49 9.4 47 8.3 93 93 S 5 7 29.71 1006 10 16 0.00 0.00
1:00 am 01:00 Mostly Cloudy 49 9.4 47 8.3 93 93 S 5 7 29.71 1006 9 14 0.00 0.00
1:53 am 01:53 Cloudy with Mist and Fog 48 8.9 46 7.8 93 93 Calm 29.71 1006 4 6 0.00 0.00
2:08 am 02:08 Mostly Cloudy with Mist and Fog 48 9 46 8 94 94 Calm 29.71 1006 5 8 0.00 0.00
2:15 am 02:15 Mostly Cloudy with Mist and Fog 48 8.9 46 7.8 93 93 Calm 29.71 1006 2 3 0.00 0.00
2:17 am 02:17 Mostly Cloudy with Mist and Fog 48 8.9 46 7.8 93 93 Calm 29.71 1006 2 3 0.00 0.00
2:28 am 02:28 Mostly Cloudy with Mist and Fog 46 8 45 7 93 93 Calm 29.74 1007 1 1 0.00 0.00
2:32 am 02:32 Mostly Cloudy with Mist and Fog 46 8 46 8 100 100 Calm 29.74 1007 2 2 0.00 0.00
2:34 am 02:34 Mostly Cloudy with Mist and Fog 46 8 46 8 100 100 Calm 29.74 1007 3 5 0.00 0.00
2:50 am 02:50 Cloudy with Mist and Fog 48 9 46 8 94 94 Calm 29.71 1006 5 8 0.00 0.00
2:53 am 02:53 Cloudy with Mist and Fog 48 8.9 46 7.8 93 93 Calm 29.72 1006 6 10 0.00 0.00
2:58 am 02:58 Cloudy with Mist and Fog 46 8 45 7 93 93 Calm 29.74 1007 2 3 0.00 0.00
3:09 am 03:09 Cloudy with Mist and Fog 47 8.3 45 7.2 93 93 Calm 29.77 1008 2 3 0.00 0.00
3:13 am 03:13 Cloudy with Mist and Fog 47 8.3 46 7.8 97 97 Calm 29.77 1008 3 5 0.00 0.00
3:34 am 03:34 Cloudy with Mist and Fog 48 9 46 8 94 94 SW 5 7 29.74 1007 3 4 0.00 0.00
3:53 am 03:53 Cloudy with Mist and Fog 49 9.4 47 8.3 93 93 SSW 5 7 29.73 1007 3 4 0.00 0.00
4:02 am 04:02 Cloudy with Mist and Fog 48 9 46 8 94 94 SSW 7 11 29.74 1007 3 5 0.00 0.00
4:23 am 04:23 Mostly Cloudy with Mist and Fog 49 9.4 47 8.3 93 93 SSW 6 9 29.74 1007 5 8 0.00 0.00
4:41 am 04:41 Mostly Cloudy with Mist and Fog 49 9.4 47 8.3 93 93 SW 5 7 29.74 1007 4 6 0.00 0.00
4:48 am 04:48 Cloudy with Mist and Fog 48 9 46 8 94 94 SW 5 7 29.74 1007 2 3 0.00 0.00
4:53 am 04:53 Cloudy with Mist and Fog 49 9.4 47 8.3 93 93 SW 6 9 29.75 1007 1 2 0.00 0.00
5:11 am 05:11 Cloudy with Fog 49 9.4 47 8.3 93 93 SW 6 9 29.80 1009 1 1 0.00 0.00
5:27 am 05:27 Cloudy with Mist and Fog 49 9.4 47 8.3 93 93 SSW 6 9 29.80 1009 1 1 0.00 0.00
5:34 am 05:34 Cloudy with Mist and Fog 48 9 46 8 94 94 SSW 5 7 29.80 1009 1 2 0.00 0.00
5:48 am 05:48 Cloudy with Mist and Fog 48 9 46 8 94 94 SSW 6 9 29.80 1009 1 1 0.00 0.00
5:53 am 05:53 Cloudy with Mist and Fog 48 8.9 47 8.3 96 96 SSW 6 9 29.76 1008 1 1 0.00 0.00
6:53 am 06:53 Cloudy with Fog 48 8.9 47 8.3 96 96 WSW 5 7 29.78 1009 1 1 0.00 0.00
7:00 am 07:00 Mostly Cloudy with Fog 48 9 46 8 94 94 WSW 5 7 29.80 1009 1 1 0.00 0.00
7:20 am 07:20 Mostly Cloudy with Fog 48 9 46 8 94 94 SW 3 6 29.83 1010 0 0 0.00 0.00
7:53 am 07:53 Mostly Cloudy with Fog 47 8.3 46 7.8 97 97 Calm 29.79 1009 0 0 0.00 0.00
8:27 am 08:27 Partly Cloudy with Mist and Fog 47 8.3 46 7.8 97 97 S 3 6 29.83 1010 5 8 0.00 0.00
8:51 am 08:51 Mostly Sunny 46 8 46 8 100 100 WSW 5 7 29.85 1011 9 14 0.00 0.00
8:53 am 08:53 Sunny 47 8.3 45 7.2 93 93 WSW 5 7 29.82 1010 9 14 0.00 0.00
9:46 am 09:46 Mostly Cloudy 48 9 45 7 87 87 WNW 7 11 29.85 1011 10 16 0.00 0.00
9:53 am 09:53 Partly Cloudy 50 10 44 6.7 80 80 WNW 6 9 29.84 1011 10 16 0.00 0.00
10:53 am 10:53 Sunny 52 11.1 40 4.4 64 64 WNW 9 15 29.85 1011 10 16 0.00 0.00
11:53 am 11:53 Sunny 54 12.2 38 3.3 55 55 NW 7 11 29.85 1011 10 16 0.00 0.00
12:53 pm 12:53 Sunny 55 12.8 37 2.8 51 51 VRB 7 11 29.82 1010 10 16 0.00 0.00
1:53 pm 13:53 Sunny 57 13.9 35 1.7 44 44 W 10 17 29.82 1010 10 16 0.00 0.00
2:53 pm 14:53 Sunny 58 14.4 37 2.8 46 46 WNW 7 11 29.81 1010 10 16 0.00 0.00
3:53 pm 15:53 Sunny 57 13.9 33 0.6 41 41 NW 10 17 29.83 1010 10 16 0.00 0.00
4:53 pm 16:53 Sunny 56 13.3 30 -1.1 37 37 NW 8 13 29.84 1011 10 16 0.00 0.00
5:53 pm 17:53 Clear 52 11.1 32 0 47 47 W 5 7 29.83 1010 10 16 0.00 0.00
6:53 pm 18:53 Clear 49 9.4 35 1.7 59 59 Calm 29.85 1011 10 16 0.00 0.00
7:53 pm 19:53 Clear 46 7.8 36 2.2 68 68 Calm 29.86 1011 10 16 0.00 0.00
8:53 pm 20:53 Clear 45 7.2 36 2.2 71 71 NNE 5 7 29.85 1011 10 16 0.00 0.00
9:53 pm 21:53 Clear 45 7.2 35 1.7 68 68 N 6 9 29.83 1010 10 16 0.00 0.00
10:53 pm 22:53 Clear 44 6.7 35 1.7 71 71 NNW 8 13 29.85 1011 10 16 0.00 0.00
11:53 pm 23:53 Clear 41 5 34 1.1 76 76 NNW 8 13 29.83 1010 10 16 0.00 0.00

Powered by AerisWeather